Location: *
(58.4167°N, 22.5000°E)
Time: 11:50:40
(UTC+00:00)

Terra - Pass Details

Date: 22 September 2019
Orbit: 701 x 703 km, 98.2° (Epoch: 19 October)

Event Time Altitude Azimuth Distance (km) Brightness Sun altitude
Exits shadow 21:21:29 27° 278° (W) 1,358 3.4 -30.2°
Drops below altitude 10° 21:25:05 10° 326° (NNW) 2,185 5.2 -30.3°
Sets 21:27:40 0° 339° (NNW) 3,108 6.3 -30.4°
